Shelton, WA
on Saturday, January 5, 2013

Saturday
Previous Day Next Day
Daily Summary
 ActualAverage (KOLM)Record (KOLM)
Temperature
Mean Temperature °F / °C 39°F / 4°C  
Max Temperature 43°F / 6°C 45°F / 7°C 53°F / 11°C (1956)
Min Temperature 37°F / 3°C 34°F / 1°C 4°F / -15°C (1979)
Degree Days
Heating Degree Days 25 26  
Month to date heating degree days 130  
Since 1 July heating degree days 2400  
Cooling Degree Days 0 0  
Month to date cooling degree days 0  
Year to date cooling degree days 0  
Moisture
Dew Point 39°F / 4°C   
Average Humidity 97    
Maximum Humidity 100    
Minimum Humidity 93    
Precipitation
Precipitation 0.11 in / 2.79 cm 0.26 in / 6.60 cm 1.95 in / 4.95 cm (1954)
Month to date precipitation 1.27  
Year to date precipitation 1.27  
Wind
Wind Speed 2 mph / 3 km/h   
Max Wind Speed 9 mph / 14 km/h   
Max Gust Speed mph / km/h   
Visibility 9 miles / 15 kilometers   
Events Rain   

Key: T is trace of precipitation, MM is missing value
Source: NWS Daily Summary
Time(PST)TemperatureDew PointHumidity Pressure Visibility Wind DirectionWind SpeedGust SpeedPrecipitationEvents Conditions
12:16 AM 37.4°F / 3.0°C 37.4°F / 3.0°C 100% 30.14 in / 1020.5 hPa 4.0 miles / 6.4 kilometers Calm Calm - N/A   Overcast
12:31 AM 37.4°F / 3.0°C 37.4°F / 3.0°C 100% 30.14 in / 1020.5 hPa 8.0 miles / 12.9 kilometers Calm Calm - N/A   Overcast
12:43 AM 37.4°F / 3.0°C 37.4°F / 3.0°C 100% 30.14 in / 1020.5 hPa 4.0 miles / 6.4 kilometers Calm Calm - N/A   Overcast
12:53 AM 37.0°F / 2.8°C 37.0°F / 2.8°C 100% 30.16 in / 1021.1 hPa 4.0 miles / 6.4 kilometers Calm Calm - N/A   Overcast
1:03 AM 37.4°F / 3.0°C 37.4°F / 3.0°C 100% 30.14 in / 1020.5 hPa 8.0 miles / 12.9 kilometers Calm Calm - N/A   Overcast
1:53 AM 37.0°F / 2.8°C 37.0°F / 2.8°C 100% 30.16 in / 1021.1 hPa 10.0 miles / 16.1 kilometers Calm Calm - N/A   Overcast
2:30 AM 37.4°F / 3.0°C 37.4°F / 3.0°C 100% 30.14 in / 1020.5 hPa 10.0 miles / 16.1 kilometers Calm Calm - N/A   Overcast
2:53 AM 37.0°F / 2.8°C 37.0°F / 2.8°C 100% 30.16 in / 1021.2 hPa 10.0 miles / 16.1 kilometers Variable 3.5 mph / 5.6 km/h - N/A   Overcast
3:03 AM 37.4°F / 3.0°C 37.4°F / 3.0°C 100% 30.15 in / 1020.9 hPa 10.0 miles / 16.1 kilometers SW 4.6 mph / 7.4 km/h - N/A   Overcast
3:53 AM 37.0°F / 2.8°C 37.0°F / 2.8°C 100% 30.16 in / 1021.1 hPa 10.0 miles / 16.1 kilometers Calm Calm - N/A   Overcast
4:53 AM 37.9°F / 3.3°C 37.9°F / 3.3°C 100% 30.16 in / 1021.1 hPa 10.0 miles / 16.1 kilometers Calm Calm - N/A   Overcast
5:53 AM 39.9°F / 4.4°C 39.9°F / 4.4°C 100% 30.12 in / 1020.0 hPa 10.0 miles / 16.1 kilometers NNE 5.8 mph / 9.3 km/h - 0.01 in / 0.3 cm Rain Light Rain
6:53 AM 39.0°F / 3.9°C 39.0°F / 3.9°C 100% 30.14 in / 1020.7 hPa 10.0 miles / 16.1 kilometers Calm Calm - 0.01 in / 0.3 cm Rain Light Rain
7:29 AM 39.2°F / 4.0°C 39.2°F / 4.0°C 100% 30.12 in / 1019.9 hPa 10.0 miles / 16.1 kilometers East 6.9 mph / 11.1 km/h - 0.00 in / 0.0 cm Rain Light Rain
7:53 AM 39.9°F / 4.4°C 39.9°F / 4.4°C 100% 30.16 in / 1021.1 hPa 10.0 miles / 16.1 kilometers Calm Calm - 0.00 in / 0.0 cm   Overcast
8:53 AM 39.9°F / 4.4°C 39.9°F / 4.4°C 100% 30.17 in / 1021.5 hPa 10.0 miles / 16.1 kilometers NNE 5.8 mph / 9.3 km/h - 0.01 in / 0.3 cm   Overcast
9:45 AM 41.0°F / 5.0°C 39.2°F / 4.0°C 93% 30.17 in / 1021.6 hPa 10.0 miles / 16.1 kilometers North 5.8 mph / 9.3 km/h - N/A   Overcast
9:53 AM 41.0°F / 5.0°C 39.9°F / 4.4°C 96% 30.18 in / 1021.9 hPa 10.0 miles / 16.1 kilometers NNE 4.6 mph / 7.4 km/h - N/A   Overcast
10:53 AM 42.1°F / 5.6°C 41.0°F / 5.0°C 96% 30.18 in / 1022.0 hPa 10.0 miles / 16.1 kilometers NNE 3.5 mph / 5.6 km/h - N/A   Mostly Cloudy
11:53 AM 42.1°F / 5.6°C 41.0°F / 5.0°C 96% 30.17 in / 1021.7 hPa 10.0 miles / 16.1 kilometers North 3.5 mph / 5.6 km/h - N/A   Overcast
12:53 PM 43.0°F / 6.1°C 41.0°F / 5.0°C 93% 30.14 in / 1020.5 hPa 10.0 miles / 16.1 kilometers North 4.6 mph / 7.4 km/h - N/A   Overcast
1:53 PM 43.0°F / 6.1°C 41.0°F / 5.0°C 93% 30.13 in / 1020.3 hPa 10.0 miles / 16.1 kilometers Calm Calm - N/A   Overcast
2:53 PM 43.0°F / 6.1°C 41.0°F / 5.0°C 93% 30.13 in / 1020.2 hPa 10.0 miles / 16.1 kilometers Calm Calm - N/A   Overcast
3:53 PM 43.0°F / 6.1°C 42.1°F / 5.6°C 97% 30.13 in / 1020.1 hPa 10.0 miles / 16.1 kilometers Calm Calm - N/A   Overcast
4:53 PM 42.1°F / 5.6°C 41.0°F / 5.0°C 96% 30.11 in / 1019.6 hPa 10.0 miles / 16.1 kilometers Calm Calm - N/A   Overcast
5:02 PM 39.2°F / 4.0°C 39.2°F / 4.0°C 100% 30.10 in / 1019.2 hPa 10.0 miles / 16.1 kilometers Calm Calm - N/A   Overcast
5:53 PM 39.9°F / 4.4°C 39.9°F / 4.4°C 100% 30.11 in / 1019.5 hPa 8.0 miles / 12.9 kilometers Calm Calm - N/A   Overcast
6:53 PM 39.9°F / 4.4°C 39.9°F / 4.4°C 100% 30.12 in / 1020.0 hPa 10.0 miles / 16.1 kilometers Calm Calm - 0.04 in / 1.0 cm Rain Light Rain
7:19 PM 39.2°F / 4.0°C 39.2°F / 4.0°C 100% 30.10 in / 1019.2 hPa 10.0 miles / 16.1 kilometers Calm Calm - 0.01 in / 0.3 cm Rain Light Rain
7:26 PM 39.2°F / 4.0°C 39.2°F / 4.0°C 100% 30.11 in / 1019.5 hPa 10.0 miles / 16.1 kilometers Calm Calm - 0.02 in / 0.5 cm Rain Light Rain
7:41 PM 41.0°F / 5.0°C 39.2°F / 4.0°C 93% 30.11 in / 1019.5 hPa 10.0 miles / 16.1 kilometers Calm Calm - 0.02 in / 0.5 cm Rain Light Rain
7:53 PM 41.0°F / 5.0°C 39.9°F / 4.4°C 96% 30.12 in / 1019.8 hPa 10.0 miles / 16.1 kilometers Calm Calm - 0.02 in / 0.5 cm Rain Light Rain
8:22 PM 41.0°F / 5.0°C 39.2°F / 4.0°C 93% 30.11 in / 1019.5 hPa 10.0 miles / 16.1 kilometers WSW 6.9 mph / 11.1 km/h - 0.01 in / 0.3 cm Rain Light Rain
8:53 PM 39.9°F / 4.4°C 39.0°F / 3.9°C 97% 30.12 in / 1019.8 hPa 10.0 miles / 16.1 kilometers Calm Calm - 0.02 in / 0.5 cm Rain Light Rain
9:48 PM 41.0°F / 5.0°C 39.2°F / 4.0°C 93% 30.11 in / 1019.5 hPa 10.0 miles / 16.1 kilometers WSW 5.8 mph / 9.3 km/h - 0.00 in / 0.0 cm   Overcast
9:53 PM 41.0°F / 5.0°C 39.9°F / 4.4°C 96% 30.13 in / 1020.1 hPa 10.0 miles / 16.1 kilometers WSW 5.8 mph / 9.3 km/h - 0.00 in / 0.0 cm   Overcast
9:56 PM 41.0°F / 5.0°C 39.2°F / 4.0°C 93% 30.11 in / 1019.5 hPa 10.0 miles / 16.1 kilometers SW 4.6 mph / 7.4 km/h - N/A   Overcast
10:29 PM 41.0°F / 5.0°C 39.2°F / 4.0°C 93% 30.12 in / 1019.9 hPa 10.0 miles / 16.1 kilometers SW 9.2 mph / 14.8 km/h - N/A   Overcast
10:53 PM 39.9°F / 4.4°C 39.0°F / 3.9°C 97% 30.13 in / 1020.3 hPa 10.0 miles / 16.1 kilometers WSW 4.6 mph / 7.4 km/h - N/A   Mostly Cloudy
11:11 PM 39.2°F / 4.0°C 37.4°F / 3.0°C 93% 30.13 in / 1020.2 hPa 10.0 miles / 16.1 kilometers WSW 3.5 mph / 5.6 km/h - N/A   Mostly Cloudy
11:25 PM 39.2°F / 4.0°C 39.2°F / 4.0°C 100% 30.13 in / 1020.2 hPa 10.0 miles / 16.1 kilometers SW 3.5 mph / 5.6 km/h - N/A   Mostly Cloudy
11:53 PM 39.9°F / 4.4°C 39.0°F / 3.9°C 97% 30.14 in / 1020.7 hPa 10.0 miles / 16.1 kilometers SSW 6.9 mph / 11.1 km/h - N/A   Overcast
Moon Phase
Jan. 05 Jan. 11 Jan. 18 Jan. 26 Feb. 03
Sunrise:07:58 AM (PST) Moon Rise:12:57 AM (PST)1/5
Sunset:04:37 PM (PST) Moon Set:11:42 AM (PST)1/5

Copyright © 2014 The Weather Underground, Inc.